Location: Juzet
(42.9779°N, 0.7597°E)
Time: 03:02:16
(UTC+00:00)

Cosmos 1980 Rocket - Pass Details

Date: 14 July 2020
Orbit: 828 x 851 km, 71.0° (Epoch: 04 August)

Event Time Altitude Azimuth Distance (km) Brightness Sun altitude
Rises 03:24:44 0° 328° (NNW) 3,426 5.5 -10.5°
Reaches altitude 10° 03:27:19 10° 321° (NW) 2,485 4.7 -10.1°
Maximum altitude 03:32:35 40° 254° (WSW) 1,241 2.7 -9.4°
Drops below altitude 10° 03:37:48 10° 187° (S) 2,459 4.2 -8.7°
Sets 03:40:21 0° 180° (S) 3,386 5.0 -8.3°
